This is the latest recevied weather packets stored in our database for station/object N2XP-2. If no packets are shown the sender has not sent any weather packets the latest 10 day(s).
| Time | Temp. | Humidity | Pressure | Rain* | Wind** | Luminosity | Snow |
|---|---|---|---|---|---|---|---|
| 1778141891 | 13.33° C | 92% | 1009.4 hPa | 3.05 mm | 0 m/s | - | - |
| 1778141631 | 13.33° C | 92% | 1009.3 hPa | 3.05 mm | 0.45 m/s, 10° | - | - |
| 1778141588 | 13.33° C | 92% | 1009.3 hPa | 3.05 mm | 0.45 m/s, 10° | - | - |
| 1778141342 | 13.89° C | 92% | 1009.3 hPa | 3.05 mm | 0.45 m/s, 323° | - | - |
| 1778141289 | 13.89° C | 92% | 1009.3 hPa | 3.05 mm | 0.45 m/s, 323° | - | - |
| 1778141022 | 13.89° C | 92% | 1009.4 hPa | 3.05 mm | 0.89 m/s, 354° | - | - |
| 1778140989 | 13.89° C | 92% | 1009.4 hPa | 3.05 mm | 0.89 m/s, 354° | - | - |
| 1778140686 | 13.89° C | 92% | 1008.9 hPa | 3.05 mm | 0 m/s | - | - |
| 1778140432 | 14.44° C | 92% | 1009.1 hPa | 3.05 mm | 0.89 m/s, 10° | - | - |
| 1778140387 | 14.44° C | 92% | 1009.1 hPa | 3.05 mm | 0.89 m/s, 10° | - | - |
| 1778140087 | 14.44° C | 92% | 1009.5 hPa | 3.81 mm | 0 m/s | - | - |
| 1778140013 | 14.44° C | 91% | 1009.3 hPa | 3.81 mm | 0.45 m/s, 291° | - | - |
| 1778140003 | 14.44° C | 90% | 1009.3 hPa | 3.81 mm | 0 m/s | - | - |
| 1778139784 | 14.44° C | 92% | 1009.6 hPa | 3.81 mm | 0 m/s | - | - |
| 1778139485 | 14.44° C | 92% | 1009.2 hPa | 3.81 mm | 0 m/s | - | - |
| 1778139186 | 14.44° C | 91% | 1009.3 hPa | 3.81 mm | 0 m/s | - | - |
| 1778138922 | 14.44° C | 91% | 1008.6 hPa | 3.81 mm | 0 m/s | - | - |
| 1778138882 | 14.44° C | 91% | 1008.6 hPa | 3.81 mm | 0 m/s | - | - |
| 1778138624 | 14.44° C | 91% | 1009.3 hPa | 3.81 mm | 0.45 m/s, 291° | - | - |
| 1778138583 | 14.44° C | 91% | 1009.3 hPa | 3.81 mm | 0.45 m/s, 291° | - | - |
| 1778138285 | 14.44° C | 90% | 1009.3 hPa | 3.81 mm | 0 m/s | - | - |
| 1778138096 | 15° C | 90% | 1009.1 hPa | 3.81 mm | 0 m/s | - | - |
| 1778137981 | 14.44° C | 90% | 1008.7 hPa | 3.81 mm | 0.89 m/s, 356° | - | - |
| 1778137683 | 15° C | 90% | 1008.9 hPa | 3.81 mm | 0.89 m/s, 308° | - | - |
| 1778137427 | 15° C | 90% | 1008.7 hPa | 3.81 mm | 0.45 m/s, 323° | - | - |
* Rain latest hour (hover to see other rain measurements)
** Current wind speed in m/s (hover to see current wind gust speed)